Time,TemperatureF,DewpointF,PressureIn,WindDirection,WindDirectionDegrees,WindSpeedMPH,WindSpeedGustMPH,Humidity,HourlyPrecipIn,Conditions,Clouds,dailyrainin,SolarRadiationWatts/m^2,SoftwareType,DateUTC
2013-01-20 00:02:00,42.8,34.4,30.12,WNW,291,0.0,0.0,72,0.00,,CLR,0.00,0.00,VWS V14.01,2013-01-20 06:02:00,
2013-01-20 00:07:00,42.6,34.2,30.12,WNW,291,0.0,0.0,72,0.00,,CLR,0.00,0.00,VWS V14.01,2013-01-20 06:07:00,
2013-01-20 00:12:00,42.3,33.9,30.12,WNW,291,0.0,0.0,72,0.00,,CLR,0.00,0.00,VWS V14.01,2013-01-20 06:12:00,
2013-01-20 00:17:00,42.0,34.0,30.12,WNW,291,0.0,0.0,73,0.00,,CLR,0.00,0.00,VWS V14.01,2013-01-20 06:17:00,
2013-01-20 00:22:00,41.7,33.7,30.12,WNW,291,0.0,0.0,73,0.00,,CLR,0.00,0.00,VWS V14.01,2013-01-20 06:22:00,
2013-01-20 00:27:00,41.4,33.4,30.12,WNW,291,0.0,0.0,73,0.00,,CLR,0.00,0.00,VWS V14.01,2013-01-20 06:27:00,
2013-01-20 00:32:00,41.1,33.5,30.13,WNW,291,0.0,0.0,74,0.00,,CLR,0.00,0.00,VWS V14.01,2013-01-20 06:32:00,
2013-01-20 00:38:00,40.7,33.4,30.13,WNW,291,0.0,0.0,75,0.00,,CLR,0.00,0.00,VWS V14.01,2013-01-20 06:38:00,
2013-01-20 00:43:00,40.5,33.2,30.13,WNW,291,0.0,0.0,75,0.00,,CLR,0.00,0.00,VWS V14.01,2013-01-20 06:43:00,
2013-01-20 00:48:00,40.2,33.2,30.13,WNW,291,0.0,0.0,76,0.00,,CLR,0.00,0.00,VWS V14.01,2013-01-20 06:48:00,
2013-01-20 00:53:00,40.0,33.1,30.13,WNW,291,0.0,0.0,76,0.00,,CLR,0.00,0.00,VWS V14.01,2013-01-20 06:53:00,
2013-01-20 00:58:00,39.9,33.0,30.13,WNW,291,0.0,0.0,76,0.00,,CLR,0.00,0.00,VWS V14.01,2013-01-20 06:58:00,
2013-01-20 01:03:00,39.8,33.2,30.14,WNW,291,0.0,0.0,77,0.00,,CLR,0.00,0.00,VWS V14.01,2013-01-20 07:03:00,
2013-01-20 01:08:00,39.8,33.2,30.14,WNW,291,0.0,0.0,77,0.00,,CLR,0.00,0.00,VWS V14.01,2013-01-20 07:08:00,
2013-01-20 01:13:00,39.7,32.8,30.14,WNW,291,0.0,0.0,76,0.00,,CLR,0.00,0.00,VWS V14.01,2013-01-20 07:13:00,
2013-01-20 01:18:00,39.7,32.8,30.14,WNW,291,0.0,0.0,76,0.00,,CLR,0.00,0.00,VWS V14.01,2013-01-20 07:18:00,
2013-01-20 01:23:00,39.7,32.8,30.14,WNW,291,0.0,0.0,76,0.00,,CLR,0.00,0.00,VWS V14.01,2013-01-20 07:23:00,
2013-01-20 01:28:00,39.7,32.8,30.14,WNW,291,0.0,0.0,76,0.00,,CLR,0.00,0.00,VWS V14.01,2013-01-20 07:28:00,
2013-01-20 01:33:00,39.6,32.3,30.14,WNW,291,0.0,0.0,75,0.00,,CLR,0.00,0.00,VWS V14.01,2013-01-20 07:33:00,
2013-01-20 01:38:00,39.5,31.9,30.14,WNW,291,0.0,0.0,74,0.00,,CLR,0.00,0.00,VWS V14.01,2013-01-20 07:38:00,
2013-01-20 01:43:00,39.4,32.2,30.14,WNW,291,0.0,0.0,75,0.00,,CLR,0.00,0.00,VWS V14.01,2013-01-20 07:43:00,
2013-01-20 01:48:00,39.2,32.0,30.14,WNW,291,0.0,0.0,75,0.00,,CLR,0.00,0.00,VWS V14.01,2013-01-20 07:48:00,
2013-01-20 01:53:00,39.0,31.8,30.14,WNW,291,0.0,0.0,75,0.00,,CLR,0.00,0.00,VWS V14.01,2013-01-20 07:53:00,
2013-01-20 01:58:00,38.8,31.6,30.14,WNW,291,0.0,0.0,75,0.00,,CLR,0.00,0.00,VWS V14.01,2013-01-20 07:58:00,
2013-01-20 02:03:00,38.6,31.4,30.15,WNW,291,0.0,0.0,75,0.00,,CLR,0.00,0.00,VWS V14.01,2013-01-20 08:03:00,
2013-01-20 02:08:00,38.3,31.1,30.15,WNW,291,0.0,0.0,75,0.00,,CLR,0.00,0.00,VWS V14.01,2013-01-20 08:08:00,
2013-01-20 02:13:00,38.0,31.1,30.15,WNW,291,0.0,0.0,76,0.00,,CLR,0.00,0.00,VWS V14.01,2013-01-20 08:13:00,
2013-01-20 02:18:00,37.8,31.2,30.15,WNW,291,0.0,0.0,77,0.00,,CLR,0.00,0.00,VWS V14.01,2013-01-20 08:18:00,
2013-01-20 02:23:00,37.7,30.8,30.15,WNW,291,0.0,0.0,76,0.00,,CLR,0.00,0.00,VWS V14.01,2013-01-20 08:23:00,
2013-01-20 02:28:00,37.7,30.8,30.15,WNW,291,0.0,0.0,76,0.00,,CLR,0.00,0.00,VWS V14.01,2013-01-20 08:28:00,
2013-01-20 02:33:00,37.6,30.7,30.15,WNW,291,0.0,0.0,76,0.00,,CLR,0.00,0.00,VWS V14.01,2013-01-20 08:33:00,
2013-01-20 02:38:00,37.6,30.4,30.15,WNW,291,0.0,0.0,75,0.00,,CLR,0.00,0.00,VWS V14.01,2013-01-20 08:38:00,
2013-01-20 02:43:00,37.5,30.3,30.15,WNW,291,0.0,0.0,75,0.00,,CLR,0.00,0.00,VWS V14.01,2013-01-20 08:43:00,
2013-01-20 02:49:00,37.4,30.2,30.15,WNW,291,0.0,0.0,75,0.00,,CLR,0.00,0.00,VWS V14.01,2013-01-20 08:49:00,
2013-01-20 02:54:00,37.2,30.0,30.15,WNW,291,0.0,0.0,75,0.00,,CLR,0.00,0.00,VWS V14.01,2013-01-20 08:54:00,
2013-01-20 02:59:00,37.0,29.8,30.15,WNW,291,0.0,0.0,75,0.00,,CLR,0.00,0.00,VWS V14.01,2013-01-20 08:59:00,
2013-01-20 03:04:00,36.8,29.6,30.16,WNW,291,0.0,0.0,75,0.00,,CLR,0.00,0.00,VWS V14.01,2013-01-20 09:04:00,
2013-01-20 03:09:00,36.6,29.4,30.16,WNW,291,0.0,0.0,75,0.00,,CLR,0.00,0.00,VWS V14.01,2013-01-20 09:09:00,
2013-01-20 03:14:00,36.2,29.0,30.16,WNW,291,0.0,0.0,75,0.00,,CLR,0.00,0.00,VWS V14.01,2013-01-20 09:14:00,
2013-01-20 03:19:00,35.9,28.8,30.16,WNW,291,0.0,0.0,75,0.00,,CLR,0.00,0.00,VWS V14.01,2013-01-20 09:19:00,
2013-01-20 03:24:00,35.5,29.0,30.16,WNW,291,0.0,0.0,77,0.00,,CLR,0.00,0.00,VWS V14.01,2013-01-20 09:24:00,
2013-01-20 03:29:00,35.3,28.8,30.16,WNW,291,0.0,0.0,77,0.00,,CLR,0.00,0.00,VWS V14.01,2013-01-20 09:29:00,
2013-01-20 03:34:00,35.1,28.6,30.17,WNW,291,0.0,0.0,77,0.00,,CLR,0.00,0.00,VWS V14.01,2013-01-20 09:34:00,
2013-01-20 03:39:00,34.7,28.5,30.17,WNW,291,0.0,0.0,78,0.00,,CLR,0.00,0.00,VWS V14.01,2013-01-20 09:39:00,
2013-01-20 03:44:00,34.4,28.6,30.17,WNW,291,0.0,0.0,79,0.00,,CLR,0.00,0.00,VWS V14.01,2013-01-20 09:44:00,
2013-01-20 03:49:00,34.5,28.4,30.16,WNW,291,0.0,2.0,78,0.00,,CLR,0.00,0.00,VWS V14.01,2013-01-20 09:49:00,
2013-01-20 03:54:00,34.8,28.6,30.16,NNW,346,0.0,2.0,78,0.00,,CLR,0.00,0.00,VWS V14.01,2013-01-20 09:54:00,
2013-01-20 04:00:00,35.1,28.6,30.15,NNW,346,0.0,1.0,77,0.00,,CLR,0.00,0.00,VWS V14.01,2013-01-20 10:00:00,
2013-01-20 04:05:00,35.4,28.9,30.15,NNW,346,0.0,2.0,77,0.00,,CLR,0.00,0.00,VWS V14.01,2013-01-20 10:05:00,
2013-01-20 04:10:00,35.6,28.8,30.15,NNW,347,0.0,2.0,76,0.00,,CLR,0.00,0.00,VWS V14.01,2013-01-20 10:10:00,
2013-01-20 04:15:00,35.8,28.7,30.15,NNW,347,0.0,2.0,75,0.00,,CLR,0.00,0.00,VWS V14.01,2013-01-20 10:15:00,
2013-01-20 04:20:00,36.0,28.9,30.15,NNW,347,0.0,2.0,75,0.00,,CLR,0.00,0.00,VWS V14.01,2013-01-20 10:20:00,
2013-01-20 04:25:00,36.2,29.0,30.15,NNW,346,0.0,1.0,75,0.00,,CLR,0.00,0.00,VWS V14.01,2013-01-20 10:25:00,
2013-01-20 04:30:00,36.3,28.8,30.15,NNW,347,0.0,1.0,74,0.00,,CLR,0.00,0.00,VWS V14.01,2013-01-20 10:30:00,
2013-01-20 04:35:00,36.4,28.9,30.15,NNW,347,0.0,3.0,74,0.00,,CLR,0.00,0.00,VWS V14.01,2013-01-20 10:35:00,
2013-01-20 04:40:00,36.4,28.9,30.15,NNW,347,0.0,0.0,74,0.00,,CLR,0.00,0.00,VWS V14.01,2013-01-20 10:40:00,
2013-01-20 04:45:00,36.4,28.9,30.16,NNW,347,0.0,1.0,74,0.00,,CLR,0.00,0.00,VWS V14.01,2013-01-20 10:45:00,
2013-01-20 04:50:00,36.4,28.9,30.16,North,350,0.0,3.0,74,0.00,,CLR,0.00,0.00,VWS V14.01,2013-01-20 10:50:00,
2013-01-20 04:55:00,36.4,28.9,30.16,North,350,0.0,2.0,74,0.00,,CLR,0.00,0.00,VWS V14.01,2013-01-20 10:55:00,
2013-01-20 05:00:00,36.3,28.8,30.16,North,350,0.0,1.0,74,0.00,,CLR,0.00,0.00,VWS V14.01,2013-01-20 11:00:00,
2013-01-20 05:05:00,36.3,28.8,30.16,North,350,0.0,1.0,74,0.00,,CLR,0.00,0.00,VWS V14.01,2013-01-20 11:05:00,
2013-01-20 05:10:00,36.2,28.7,30.16,North,350,0.0,0.0,74,0.00,,CLR,0.00,0.00,VWS V14.01,2013-01-20 11:10:00,
2013-01-20 05:15:00,36.2,28.7,30.17,North,350,0.0,0.0,74,0.00,,CLR,0.00,0.00,VWS V14.01,2013-01-20 11:15:00,
2013-01-20 05:21:00,36.1,28.6,30.17,North,350,0.0,0.0,74,0.00,,CLR,0.00,0.00,VWS V14.01,2013-01-20 11:21:00,
2013-01-20 05:26:00,35.9,28.4,30.17,North,350,0.0,0.0,74,0.00,,CLR,0.00,0.00,VWS V14.01,2013-01-20 11:26:00,
2013-01-20 05:31:00,35.7,28.6,30.16,North,350,0.0,0.0,75,0.00,,CLR,0.00,0.00,VWS V14.01,2013-01-20 11:31:00,
2013-01-20 05:36:00,35.5,28.4,30.16,North,350,0.0,0.0,75,0.00,,CLR,0.00,0.00,VWS V14.01,2013-01-20 11:36:00,
2013-01-20 05:41:00,35.4,28.3,30.16,North,350,0.0,0.0,75,0.00,,CLR,0.00,0.00,VWS V14.01,2013-01-20 11:41:00,
2013-01-20 05:46:00,35.1,28.0,30.17,North,350,0.0,0.0,75,0.00,,CLR,0.00,0.00,VWS V14.01,2013-01-20 11:46:00,
2013-01-20 05:51:00,34.9,28.1,30.17,North,350,0.0,1.0,76,0.00,,CLR,0.00,0.00,VWS V14.01,2013-01-20 11:51:00,
2013-01-20 05:56:00,34.6,27.8,30.17,North,350,0.0,0.0,76,0.00,,CLR,0.00,0.00,VWS V14.01,2013-01-20 11:56:00,
2013-01-20 06:01:00,34.4,27.6,30.16,North,350,0.0,0.0,76,0.00,,CLR,0.00,0.00,VWS V14.01,2013-01-20 12:01:00,
2013-01-20 06:06:00,34.4,27.6,30.16,North,350,0.0,0.0,76,0.00,,CLR,0.00,0.00,VWS V14.01,2013-01-20 12:06:00,
2013-01-20 06:12:00,34.1,27.3,30.16,North,350,0.0,0.0,76,0.00,,CLR,0.00,0.00,VWS V14.01,2013-01-20 12:12:00,
2013-01-20 06:17:00,33.6,27.5,30.17,North,350,0.0,0.0,78,0.00,,CLR,0.00,0.00,VWS V14.01,2013-01-20 12:17:00,
2013-01-20 06:22:00,33.4,27.6,30.17,North,350,0.0,0.0,79,0.00,,CLR,0.00,0.00,VWS V14.01,2013-01-20 12:22:00,
2013-01-20 06:27:00,33.2,27.4,30.17,North,350,0.0,0.0,79,0.00,,CLR,0.00,0.00,VWS V14.01,2013-01-20 12:27:00,
2013-01-20 06:32:00,33.0,27.5,30.17,North,350,0.0,0.0,80,0.00,,CLR,0.00,0.00,VWS V14.01,2013-01-20 12:32:00,
2013-01-20 06:37:00,32.8,27.6,30.17,North,350,0.0,0.0,81,0.00,,CLR,0.00,0.00,VWS V14.01,2013-01-20 12:37:00,
2013-01-20 06:42:00,32.8,27.6,30.17,North,350,0.0,0.0,81,0.00,,CLR,0.00,0.00,VWS V14.01,2013-01-20 12:42:00,
2013-01-20 06:47:00,32.8,27.6,30.18,North,350,0.0,0.0,81,0.00,,CLR,0.00,0.00,VWS V14.01,2013-01-20 12:47:00,
2013-01-20 06:52:00,32.7,27.5,30.18,North,350,0.0,0.0,81,0.00,,CLR,0.00,0.00,VWS V14.01,2013-01-20 12:52:00,
2013-01-20 06:57:00,32.6,27.1,30.18,North,350,0.0,0.0,80,0.00,,CLR,0.00,0.00,VWS V14.01,2013-01-20 12:57:00,
2013-01-20 07:02:00,32.4,27.2,30.19,North,350,0.0,0.0,81,0.00,,CLR,0.00,0.00,VWS V14.01,2013-01-20 13:02:00,
2013-01-20 07:08:00,32.3,27.4,30.19,North,350,0.0,0.0,82,0.00,,CLR,0.00,0.00,VWS V14.01,2013-01-20 13:08:00,
2013-01-20 07:13:00,32.1,27.2,30.19,North,350,0.0,0.0,82,0.00,,CLR,0.00,0.00,VWS V14.01,2013-01-20 13:13:00,
2013-01-20 07:18:00,32.0,27.1,30.19,North,350,0.0,0.0,82,0.00,,CLR,0.00,0.00,VWS V14.01,2013-01-20 13:18:00,
2013-01-20 07:23:00,31.9,27.0,30.19,North,350,0.0,0.0,82,0.00,,CLR,0.00,0.00,VWS V14.01,2013-01-20 13:23:00,
2013-01-20 07:28:00,31.7,27.1,30.19,North,350,0.0,0.0,83,0.00,,CLR,0.00,5.00,VWS V14.01,2013-01-20 13:28:00,
2013-01-20 07:34:00,31.6,27.0,30.20,North,350,0.0,0.0,83,0.00,,CLR,0.00,7.00,VWS V14.01,2013-01-20 13:34:00,
2013-01-20 07:39:00,31.5,26.9,30.20,North,350,0.0,0.0,83,0.00,,CLR,0.00,9.00,VWS V14.01,2013-01-20 13:39:00,
2013-01-20 07:44:00,31.3,26.5,30.20,North,350,0.0,0.0,82,0.00,,CLR,0.00,11.00,VWS V14.01,2013-01-20 13:44:00,
2013-01-20 07:49:00,31.2,26.4,30.20,North,350,0.0,0.0,82,0.00,,CLR,0.00,12.00,VWS V14.01,2013-01-20 13:49:00,
2013-01-20 07:54:00,31.0,25.9,30.20,North,350,0.0,0.0,81,0.00,,CLR,0.00,14.00,VWS V14.01,2013-01-20 13:54:00,
2013-01-20 07:59:00,30.7,25.9,30.20,North,350,0.0,0.0,82,0.00,,CLR,0.00,16.00,VWS V14.01,2013-01-20 13:59:00,
2013-01-20 08:04:00,30.5,25.7,30.19,North,350,0.0,0.0,82,0.00,,CLR,0.00,18.00,VWS V14.01,2013-01-20 14:04:00,
2013-01-20 08:09:00,30.2,25.7,30.19,North,350,0.0,0.0,83,0.00,,CLR,0.00,28.00,VWS V14.01,2013-01-20 14:09:00,
2013-01-20 08:14:00,30.0,25.5,30.19,North,350,0.0,0.0,83,0.00,,CLR,0.00,33.00,VWS V14.01,2013-01-20 14:14:00,
2013-01-20 08:19:00,29.8,25.6,30.19,North,350,0.0,0.0,84,0.00,,CLR,0.00,33.00,VWS V14.01,2013-01-20 14:19:00,
2013-01-20 08:24:00,29.7,25.5,30.19,North,350,0.0,0.0,84,0.00,,CLR,0.00,33.00,VWS V14.01,2013-01-20 14:24:00,
2013-01-20 08:29:00,29.6,25.6,30.19,North,350,0.0,0.0,85,0.00,,CLR,0.00,44.00,VWS V14.01,2013-01-20 14:29:00,
2013-01-20 08:34:00,29.8,26.4,30.19,North,350,0.0,0.0,87,0.00,,CLR,0.00,72.00,VWS V14.01,2013-01-20 14:34:00,
2013-01-20 08:39:00,30.0,26.9,30.19,North,350,0.0,0.0,88,0.00,,CLR,0.00,88.00,VWS V14.01,2013-01-20 14:39:00,
2013-01-20 08:44:00,30.2,27.1,30.19,North,350,0.0,0.0,88,0.00,,CLR,0.00,95.00,VWS V14.01,2013-01-20 14:44:00,
2013-01-20 08:49:00,30.6,27.5,30.19,North,350,0.0,0.0,88,0.00,,CLR,0.00,195.00,VWS V14.01,2013-01-20 14:49:00,
2013-01-20 08:54:00,30.9,27.8,30.19,North,350,0.0,0.0,88,0.00,,CLR,0.00,232.00,VWS V14.01,2013-01-20 14:54:00,
2013-01-20 08:59:00,31.5,28.4,30.19,North,350,0.0,0.0,88,0.00,,CLR,0.00,244.00,VWS V14.01,2013-01-20 14:59:00,
2013-01-20 09:04:00,32.6,29.2,30.18,ESE,105,0.0,3.0,87,0.00,,CLR,0.00,258.00,VWS V14.01,2013-01-20 15:04:00,
2013-01-20 09:09:00,33.4,29.1,30.18,ESE,103,0.0,3.0,84,0.00,,CLR,0.00,272.00,VWS V14.01,2013-01-20 15:09:00,
2013-01-20 09:14:00,34.8,28.3,30.18,ENE,59,2.0,4.0,77,0.00,,CLR,0.00,288.00,VWS V14.01,2013-01-20 15:14:00,
2013-01-20 09:20:00,36.0,28.2,30.18,ENE,67,0.0,2.0,73,0.00,,CLR,0.00,302.00,VWS V14.01,2013-01-20 15:20:00,
2013-01-20 09:25:00,37.0,28.1,30.18,ENE,61,0.0,2.0,70,0.00,,CLR,0.00,315.00,VWS V14.01,2013-01-20 15:25:00,
2013-01-20 09:30:00,37.8,27.8,30.19,ENE,67,2.0,3.0,67,0.00,,CLR,0.00,330.00,VWS V14.01,2013-01-20 15:30:00,
2013-01-20 09:35:00,38.7,28.0,30.19,SSE,153,0.0,3.0,65,0.00,,CLR,0.00,343.00,VWS V14.01,2013-01-20 15:35:00,
2013-01-20 09:40:00,39.3,27.8,30.19,SE,134,1.0,4.0,63,0.00,,CLR,0.00,355.00,VWS V14.01,2013-01-20 15:40:00,
2013-01-20 09:45:00,39.7,28.5,30.19,SE,134,0.0,3.0,64,0.00,,CLR,0.00,369.00,VWS V14.01,2013-01-20 15:45:00,
2013-01-20 09:50:00,40.0,27.6,30.19,SE,134,0.0,2.0,61,0.00,,CLR,0.00,381.00,VWS V14.01,2013-01-20 15:50:00,
2013-01-20 09:55:00,40.8,27.6,30.19,SSE,159,3.0,3.0,59,0.00,,CLR,0.00,394.00,VWS V14.01,2013-01-20 15:55:00,
2013-01-20 10:00:00,41.1,27.9,30.19,East,101,1.0,3.0,59,0.00,,CLR,0.00,404.00,VWS V14.01,2013-01-20 16:00:00,
2013-01-20 10:05:00,41.2,27.1,30.19,East,101,0.0,3.0,57,0.00,,CLR,0.00,417.00,VWS V14.01,2013-01-20 16:05:00,
2013-01-20 10:10:00,41.4,26.0,30.19,SE,133,0.0,5.0,54,0.00,,CLR,0.00,427.00,VWS V14.01,2013-01-20 16:10:00,
2013-01-20 10:15:00,41.8,25.5,30.20,SE,129,1.0,5.0,52,0.00,,CLR,0.00,439.00,VWS V14.01,2013-01-20 16:15:00,
2013-01-20 10:20:00,42.1,25.3,30.20,ESE,107,0.0,2.0,51,0.00,,CLR,0.00,450.00,VWS V14.01,2013-01-20 16:20:00,
2013-01-20 10:25:00,42.4,27.0,30.20,ESE,107,0.0,1.0,54,0.00,,CLR,0.00,461.00,VWS V14.01,2013-01-20 16:25:00,
2013-01-20 10:30:00,42.9,24.1,30.21,ESE,103,1.0,4.0,47,0.00,,CLR,0.00,468.00,VWS V14.01,2013-01-20 16:30:00,
2013-01-20 10:35:00,43.4,25.0,30.21,ENE,67,0.0,2.0,48,0.00,,CLR,0.00,476.00,VWS V14.01,2013-01-20 16:35:00,
2013-01-20 10:40:00,43.8,24.9,30.21,ESE,104,0.0,3.0,47,0.00,,CLR,0.00,487.00,VWS V14.01,2013-01-20 16:40:00,
2013-01-20 10:45:00,44.1,25.2,30.20,ESE,118,3.0,5.0,47,0.00,,CLR,0.00,497.00,VWS V14.01,2013-01-20 16:45:00,
2013-01-20 10:50:00,44.3,24.3,30.20,SE,133,1.0,6.0,45,0.00,,CLR,0.00,504.00,VWS V14.01,2013-01-20 16:50:00,
2013-01-20 10:55:00,44.5,24.5,30.20,NNE,18,1.0,3.0,45,0.00,,CLR,0.00,513.00,VWS V14.01,2013-01-20 16:55:00,
2013-01-20 11:00:00,44.5,24.0,30.19,East,88,0.0,3.0,44,0.00,,CLR,0.00,520.00,VWS V14.01,2013-01-20 17:00:00,
2013-01-20 11:05:00,45.0,24.4,30.19,ESE,118,0.0,6.0,44,0.00,,CLR,0.00,527.00,VWS V14.01,2013-01-20 17:05:00,
2013-01-20 11:10:00,45.2,24.0,30.19,ESE,112,0.0,4.0,43,0.00,,CLR,0.00,534.00,VWS V14.01,2013-01-20 17:10:00,
2013-01-20 11:15:00,45.6,23.3,30.19,ESE,106,0.0,3.0,41,0.00,,CLR,0.00,541.00,VWS V14.01,2013-01-20 17:15:00,
2013-01-20 11:20:00,46.0,23.6,30.19,NNE,26,0.0,3.0,41,0.00,,CLR,0.00,547.00,VWS V14.01,2013-01-20 17:20:00,
2013-01-20 11:25:00,46.1,23.7,30.19,East,88,0.0,3.0,41,0.00,,CLR,0.00,552.00,VWS V14.01,2013-01-20 17:25:00,
2013-01-20 11:31:00,46.5,23.5,30.18,SE,130,0.0,4.0,40,0.00,,CLR,0.00,559.00,VWS V14.01,2013-01-20 17:31:00,
2013-01-20 11:36:00,46.8,24.9,30.18,South,184,0.0,3.0,42,0.00,,CLR,0.00,563.00,VWS V14.01,2013-01-20 17:36:00,
2013-01-20 11:41:00,47.1,24.0,30.18,ESE,117,0.0,4.0,40,0.00,,CLR,0.00,568.00,VWS V14.01,2013-01-20 17:41:00,
2013-01-20 11:46:00,47.4,24.3,30.16,SE,146,0.0,3.0,40,0.00,,CLR,0.00,573.00,VWS V14.01,2013-01-20 17:46:00,
2013-01-20 11:51:00,47.8,24.1,30.16,NE,50,0.0,3.0,39,0.00,,CLR,0.00,575.00,VWS V14.01,2013-01-20 17:51:00,
2013-01-20 11:56:00,48.1,23.7,30.16,SSE,165,0.0,4.0,38,0.00,,CLR,0.00,577.00,VWS V14.01,2013-01-20 17:56:00,
2013-01-20 12:01:00,48.3,23.3,30.15,ESE,120,0.0,4.0,37,0.00,,CLR,0.00,580.00,VWS V14.01,2013-01-20 18:01:00,
2013-01-20 12:06:00,48.6,24.2,30.15,ENE,71,0.0,4.0,38,0.00,,CLR,0.00,584.00,VWS V14.01,2013-01-20 18:06:00,
2013-01-20 12:11:00,49.0,24.5,30.15,ESE,117,0.0,4.0,38,0.00,,CLR,0.00,585.00,VWS V14.01,2013-01-20 18:11:00,
2013-01-20 12:16:00,49.2,23.4,30.14,ENE,65,0.0,3.0,36,0.00,,CLR,0.00,584.00,VWS V14.01,2013-01-20 18:16:00,
2013-01-20 12:21:00,49.5,25.0,30.14,ESE,107,0.0,3.0,38,0.00,,CLR,0.00,585.00,VWS V14.01,2013-01-20 18:21:00,
2013-01-20 12:26:00,49.9,26.0,30.14,ESE,121,1.0,3.0,39,0.00,,CLR,0.00,589.00,VWS V14.01,2013-01-20 18:26:00,
2013-01-20 12:31:00,50.0,23.4,30.13,ESE,105,0.0,7.0,35,0.00,,CLR,0.00,591.00,VWS V14.01,2013-01-20 18:31:00,
2013-01-20 12:36:00,50.0,22.8,30.13,SSE,166,0.0,6.0,34,0.00,,CLR,0.00,598.00,VWS V14.01,2013-01-20 18:36:00,
2013-01-20 12:41:00,50.3,23.7,30.13,ESE,113,2.0,5.0,35,0.00,,CLR,0.00,594.00,VWS V14.01,2013-01-20 18:41:00,
2013-01-20 12:46:00,50.1,23.5,30.12,East,101,0.0,6.0,35,0.00,,CLR,0.00,591.00,VWS V14.01,2013-01-20 18:46:00,
2013-01-20 12:51:00,50.3,22.3,30.12,East,96,2.0,6.0,33,0.00,,CLR,0.00,585.00,VWS V14.01,2013-01-20 18:51:00,
2013-01-20 12:56:00,50.5,25.2,30.12,SSE,149,0.0,4.0,37,0.00,,CLR,0.00,580.00,VWS V14.01,2013-01-20 18:56:00,
2013-01-20 13:01:00,50.8,24.1,30.11,ESE,118,0.0,4.0,35,0.00,,CLR,0.00,577.00,VWS V14.01,2013-01-20 19:01:00,
2013-01-20 13:06:00,51.2,24.5,30.11,SSE,166,0.0,6.0,35,0.00,,CLR,0.00,578.00,VWS V14.01,2013-01-20 19:06:00,
2013-01-20 13:11:00,51.5,24.8,30.11,WSW,238,0.0,4.0,35,0.00,,CLR,0.00,575.00,VWS V14.01,2013-01-20 19:11:00,
2013-01-20 13:16:00,51.7,22.8,30.11,ESE,105,0.0,5.0,32,0.00,,CLR,0.00,570.00,VWS V14.01,2013-01-20 19:16:00,
2013-01-20 13:21:00,51.9,25.1,30.11,SW,223,0.0,5.0,35,0.00,,CLR,0.00,568.00,VWS V14.01,2013-01-20 19:21:00,
2013-01-20 13:26:00,52.1,23.9,30.11,SSE,165,0.0,5.0,33,0.00,,CLR,0.00,563.00,VWS V14.01,2013-01-20 19:26:00,
2013-01-20 13:31:00,52.5,25.0,30.10,SSE,166,0.0,5.0,34,0.00,,CLR,0.00,564.00,VWS V14.01,2013-01-20 19:31:00,
2013-01-20 13:36:00,52.8,25.2,30.10,NW,317,0.0,3.0,34,0.00,,CLR,0.00,564.00,VWS V14.01,2013-01-20 19:36:00,
2013-01-20 13:41:00,53.1,26.2,30.10,SSW,213,3.0,4.0,35,0.00,,CLR,0.00,570.00,VWS V14.01,2013-01-20 19:41:00,
2013-01-20 13:46:00,53.2,24.9,30.10,West,261,2.0,6.0,33,0.00,,CLR,0.00,591.00,VWS V14.01,2013-01-20 19:46:00,
2013-01-20 13:51:00,53.3,24.2,30.10,ENE,65,0.0,2.0,32,0.00,,CLR,0.00,520.00,VWS V14.01,2013-01-20 19:51:00,
2013-01-20 13:56:00,53.6,25.2,30.10,WNW,288,0.0,4.0,33,0.00,,CLR,0.00,571.00,VWS V14.01,2013-01-20 19:56:00,
2013-01-20 14:01:00,54.1,25.6,30.09,East,80,0.0,2.0,33,0.00,,CLR,0.00,547.00,VWS V14.01,2013-01-20 20:01:00,
2013-01-20 14:06:00,54.5,25.3,30.09,WNW,290,0.0,2.0,32,0.00,,CLR,0.00,534.00,VWS V14.01,2013-01-20 20:06:00,
2013-01-20 14:11:00,54.8,25.5,30.09,South,181,1.0,3.0,32,0.00,,CLR,0.00,519.00,VWS V14.01,2013-01-20 20:11:00,
2013-01-20 14:16:00,55.0,24.9,30.10,ESE,114,1.0,8.0,31,0.00,,CLR,0.00,506.00,VWS V14.01,2013-01-20 20:16:00,
2013-01-20 14:21:00,55.1,26.5,30.10,ESE,112,0.0,2.0,33,0.00,,CLR,0.00,489.00,VWS V14.01,2013-01-20 20:21:00,
2013-01-20 14:26:00,55.4,25.3,30.10,ESE,111,0.0,2.0,31,0.00,,CLR,0.00,475.00,VWS V14.01,2013-01-20 20:26:00,
2013-01-20 14:31:00,55.6,27.0,30.09,ESE,111,0.0,2.0,33,0.00,,CLR,0.00,464.00,VWS V14.01,2013-01-20 20:31:00,
2013-01-20 14:36:00,55.8,24.0,30.09,ESE,108,0.0,3.0,29,0.00,,CLR,0.00,454.00,VWS V14.01,2013-01-20 20:36:00,
2013-01-20 14:41:00,55.8,26.4,30.09,ESE,108,0.0,3.0,32,0.00,,CLR,0.00,443.00,VWS V14.01,2013-01-20 20:41:00,
2013-01-20 14:46:00,55.9,26.5,30.09,NE,39,0.0,3.0,32,0.00,,CLR,0.00,431.00,VWS V14.01,2013-01-20 20:46:00,
2013-01-20 14:51:00,56.2,26.8,30.09,NNE,19,1.0,4.0,32,0.00,,CLR,0.00,417.00,VWS V14.01,2013-01-20 20:51:00,
2013-01-20 14:57:00,56.2,26.0,30.09,ENE,61,3.0,4.0,31,0.00,,CLR,0.00,404.00,VWS V14.01,2013-01-20 20:57:00,
2013-01-20 15:02:00,56.1,25.9,30.08,ESE,109,2.0,3.0,31,0.00,,CLR,0.00,390.00,VWS V14.01,2013-01-20 21:02:00,
2013-01-20 15:07:00,56.0,25.8,30.08,ESE,119,1.0,2.0,31,0.00,,CLR,0.00,380.00,VWS V14.01,2013-01-20 21:07:00,
2013-01-20 15:12:00,56.3,26.1,30.08,NNE,28,1.0,2.0,31,0.00,,CLR,0.00,362.00,VWS V14.01,2013-01-20 21:12:00,
2013-01-20 15:18:00,56.5,26.2,30.09,ENE,65,1.0,2.0,31,0.00,,CLR,0.00,350.00,VWS V14.01,2013-01-20 21:18:00,
2013-01-20 15:23:00,56.6,27.1,30.09,ENE,78,0.0,2.0,32,0.00,,CLR,0.00,336.00,VWS V14.01,2013-01-20 21:23:00,
2013-01-20 15:28:00,56.6,25.5,30.09,NNE,12,0.0,2.0,30,0.00,,CLR,0.00,323.00,VWS V14.01,2013-01-20 21:28:00,
2013-01-20 15:33:00,56.7,27.2,30.08,NNE,12,3.0,3.0,32,0.00,,CLR,0.00,311.00,VWS V14.01,2013-01-20 21:33:00,
2013-01-20 15:38:00,56.6,27.1,30.08,WNW,298,0.0,2.0,32,0.00,,CLR,0.00,297.00,VWS V14.01,2013-01-20 21:38:00,
2013-01-20 15:43:00,56.5,25.5,30.08,NNW,341,0.0,2.0,30,0.00,,CLR,0.00,279.00,VWS V14.01,2013-01-20 21:43:00,
2013-01-20 15:48:00,56.4,26.2,30.09,NNE,22,0.0,3.0,31,0.00,,CLR,0.00,269.00,VWS V14.01,2013-01-20 21:48:00,
2013-01-20 15:54:00,56.1,27.4,30.09,ESE,113,3.0,3.0,33,0.00,,CLR,0.00,253.00,VWS V14.01,2013-01-20 21:54:00,
2013-01-20 15:59:00,55.9,25.7,30.09,NNE,17,1.0,3.0,31,0.00,,CLR,0.00,237.00,VWS V14.01,2013-01-20 21:59:00,
2013-01-20 16:04:00,55.7,24.8,30.09,NNE,17,0.0,1.0,30,0.00,,CLR,0.00,221.00,VWS V14.01,2013-01-20 22:04:00,
2013-01-20 16:09:00,55.7,25.5,30.09,East,84,0.0,2.0,31,0.00,,CLR,0.00,207.00,VWS V14.01,2013-01-20 22:09:00,
2013-01-20 16:14:00,55.5,24.6,30.09,NNE,25,1.0,3.0,30,0.00,,CLR,0.00,195.00,VWS V14.01,2013-01-20 22:14:00,
2013-01-20 16:19:00,55.5,25.4,30.09,NNE,26,0.0,1.0,31,0.00,,CLR,0.00,179.00,VWS V14.01,2013-01-20 22:19:00,
2013-01-20 16:24:00,55.5,26.1,30.09,NNE,27,0.0,2.0,32,0.00,,CLR,0.00,163.00,VWS V14.01,2013-01-20 22:24:00,
2013-01-20 16:30:00,55.5,24.6,30.09,NNE,26,0.0,2.0,30,0.00,,CLR,0.00,149.00,VWS V14.01,2013-01-20 22:30:00,
2013-01-20 16:36:00,55.4,24.5,30.09,NNE,27,0.0,1.0,30,0.00,,CLR,0.00,128.00,VWS V14.01,2013-01-20 22:36:00,
2013-01-20 16:41:00,55.2,24.3,30.09,NNE,26,0.0,2.0,30,0.00,,CLR,0.00,111.00,VWS V14.01,2013-01-20 22:41:00,
2013-01-20 16:46:00,55.0,24.2,30.09,NNE,27,1.0,1.0,30,0.00,,CLR,0.00,93.00,VWS V14.01,2013-01-20 22:46:00,
2013-01-20 16:51:00,54.7,23.9,30.09,NNE,25,1.0,1.0,30,0.00,,CLR,0.00,77.00,VWS V14.01,2013-01-20 22:51:00,
2013-01-20 16:56:00,54.3,23.5,30.09,NNE,27,0.0,0.0,30,0.00,,CLR,0.00,63.00,VWS V14.01,2013-01-20 22:56:00,
2013-01-20 17:01:00,53.9,24.0,30.09,NNE,27,0.0,0.0,31,0.00,,CLR,0.00,44.00,VWS V14.01,2013-01-20 23:01:00,
2013-01-20 17:06:00,53.6,23.7,30.09,NNE,27,2.0,2.0,31,0.00,,CLR,0.00,26.00,VWS V14.01,2013-01-20 23:06:00,
2013-01-20 17:11:00,52.9,23.1,30.09,NNE,26,0.0,1.0,31,0.00,,CLR,0.00,18.00,VWS V14.01,2013-01-20 23:11:00,
2013-01-20 17:16:00,51.8,22.9,30.09,NNE,26,0.0,3.0,32,0.00,,CLR,0.00,11.00,VWS V14.01,2013-01-20 23:16:00,
2013-01-20 17:22:00,51.0,22.9,30.09,NNE,26,0.0,0.0,33,0.00,,CLR,0.00,7.00,VWS V14.01,2013-01-20 23:22:00,
2013-01-20 17:27:00,50.0,22.8,30.09,NNE,26,0.0,1.0,34,0.00,,CLR,0.00,0.00,VWS V14.01,2013-01-20 23:27:00,
2013-01-20 17:32:00,49.1,22.0,30.10,NNE,26,0.0,1.0,34,0.00,,CLR,0.00,0.00,VWS V14.01,2013-01-20 23:32:00,
2013-01-20 17:37:00,48.2,21.9,30.10,NNE,26,1.0,2.0,35,0.00,,CLR,0.00,0.00,VWS V14.01,2013-01-20 23:37:00,
2013-01-20 17:42:00,47.1,21.5,30.10,NNE,27,0.0,2.0,36,0.00,,CLR,0.00,0.00,VWS V14.01,2013-01-20 23:42:00,
2013-01-20 17:47:00,46.5,21.0,30.10,NNE,27,0.0,0.0,36,0.00,,CLR,0.00,0.00,VWS V14.01,2013-01-20 23:47:00,
2013-01-20 17:52:00,45.8,21.0,30.10,NNE,26,0.0,2.0,37,0.00,,CLR,0.00,0.00,VWS V14.01,2013-01-20 23:52:00,
2013-01-20 17:57:00,45.1,20.4,30.10,NNE,26,0.0,3.0,37,0.00,,CLR,0.00,0.00,VWS V14.01,2013-01-20 23:57:00,
2013-01-20 18:03:00,44.6,20.6,30.10,NNE,29,0.0,2.0,38,0.00,,CLR,0.00,0.00,VWS V14.01,2013-01-21 00:03:00,
2013-01-20 18:08:00,44.3,20.3,30.10,NNE,30,0.0,0.0,38,0.00,,CLR,0.00,0.00,VWS V14.01,2013-01-21 00:08:00,
2013-01-20 18:13:00,44.0,20.6,30.10,NNE,30,0.0,0.0,39,0.00,,CLR,0.00,0.00,VWS V14.01,2013-01-21 00:13:00,
2013-01-20 18:18:00,43.7,20.4,30.11,NNE,30,0.0,0.0,39,0.00,,CLR,0.00,0.00,VWS V14.01,2013-01-21 00:18:00,
2013-01-20 18:23:00,43.2,19.9,30.11,NNE,32,0.0,1.0,39,0.00,,CLR,0.00,0.00,VWS V14.01,2013-01-21 00:23:00,
2013-01-20 18:28:00,42.8,20.2,30.11,NNE,24,0.0,0.0,40,0.00,,CLR,0.00,0.00,VWS V14.01,2013-01-21 00:28:00,
2013-01-20 18:34:00,42.5,19.9,30.11,NNE,24,0.0,1.0,40,0.00,,CLR,0.00,0.00,VWS V14.01,2013-01-21 00:34:00,
2013-01-20 18:39:00,42.2,20.2,30.11,NNE,24,0.0,0.0,41,0.00,,CLR,0.00,0.00,VWS V14.01,2013-01-21 00:39:00,
2013-01-20 18:44:00,41.9,19.9,30.11,NNE,24,0.0,1.0,41,0.00,,CLR,0.00,0.00,VWS V14.01,2013-01-21 00:44:00,
2013-01-20 18:50:00,41.6,19.7,30.11,NNE,24,0.0,1.0,41,0.00,,CLR,0.00,0.00,VWS V14.01,2013-01-21 00:50:00,
2013-01-20 18:55:00,41.3,20.0,30.11,NNE,24,0.0,0.0,42,0.00,,CLR,0.00,0.00,VWS V14.01,2013-01-21 00:55:00,
2013-01-20 19:00:00,41.0,19.7,30.12,NNE,24,0.0,2.0,42,0.00,,CLR,0.00,0.00,VWS V14.01,2013-01-21 01:00:00,
2013-01-20 19:05:00,40.8,19.5,30.12,NNE,24,0.0,0.0,42,0.00,,CLR,0.00,0.00,VWS V14.01,2013-01-21 01:05:00,
2013-01-20 19:11:00,40.5,19.2,30.12,NNE,24,0.0,1.0,42,0.00,,CLR,0.00,0.00,VWS V14.01,2013-01-21 01:11:00,
2013-01-20 19:16:00,40.2,19.5,30.12,NNE,24,0.0,2.0,43,0.00,,CLR,0.00,0.00,VWS V14.01,2013-01-21 01:16:00,
2013-01-20 19:21:00,40.0,19.3,30.12,NNE,24,0.0,1.0,43,0.00,,CLR,0.00,0.00,VWS V14.01,2013-01-21 01:21:00,
2013-01-20 19:26:00,39.8,19.1,30.12,NNE,24,0.0,2.0,43,0.00,,CLR,0.00,0.00,VWS V14.01,2013-01-21 01:26:00,
2013-01-20 19:31:00,39.6,19.5,30.12,NNE,24,0.0,0.0,44,0.00,,CLR,0.00,0.00,VWS V14.01,2013-01-21 01:31:00,
2013-01-20 19:36:00,39.4,19.3,30.12,NNE,24,0.0,1.0,44,0.00,,CLR,0.00,0.00,VWS V14.01,2013-01-21 01:36:00,
2013-01-20 19:41:00,39.1,19.0,30.12,NNE,24,0.0,1.0,44,0.00,,CLR,0.00,0.00,VWS V14.01,2013-01-21 01:41:00,
2013-01-20 19:46:00,38.9,18.3,30.13,NNE,24,0.0,0.0,43,0.00,,CLR,0.00,0.00,VWS V14.01,2013-01-21 01:46:00,
2013-01-20 19:51:00,38.6,18.6,30.13,NNE,19,2.0,3.0,44,0.00,,CLR,0.00,0.00,VWS V14.01,2013-01-21 01:51:00,
2013-01-20 19:56:00,38.4,18.4,30.13,NNE,19,0.0,2.0,44,0.00,,CLR,0.00,0.00,VWS V14.01,2013-01-21 01:56:00,
2013-01-20 20:01:00,38.1,18.6,30.14,NNE,18,0.0,1.0,45,0.00,,CLR,0.00,0.00,VWS V14.01,2013-01-21 02:01:00,
2013-01-20 20:06:00,37.9,18.5,30.14,NNE,18,0.0,1.0,45,0.00,,CLR,0.00,0.00,VWS V14.01,2013-01-21 02:06:00,
2013-01-20 20:11:00,37.7,18.3,30.14,NNE,18,0.0,1.0,45,0.00,,CLR,0.00,0.00,VWS V14.01,2013-01-21 02:11:00,
2013-01-20 20:16:00,37.5,18.6,30.14,NNE,18,0.0,0.0,46,0.00,,CLR,0.00,0.00,VWS V14.01,2013-01-21 02:16:00,
2013-01-20 20:21:00,37.2,18.3,30.14,North,360,0.0,3.0,46,0.00,,CLR,0.00,0.00,VWS V14.01,2013-01-21 02:21:00,
2013-01-20 20:26:00,36.8,18.0,30.14,NE,45,1.0,3.0,46,0.00,,CLR,0.00,0.00,VWS V14.01,2013-01-21 02:26:00,
2013-01-20 20:31:00,36.6,18.3,30.15,NNE,24,0.0,3.0,47,0.00,,CLR,0.00,0.00,VWS V14.01,2013-01-21 02:31:00,
2013-01-20 20:36:00,36.4,18.1,30.15,NNE,24,1.0,2.0,47,0.00,,CLR,0.00,0.00,VWS V14.01,2013-01-21 02:36:00,
2013-01-20 20:41:00,36.2,18.4,30.15,NNE,24,0.0,3.0,48,0.00,,CLR,0.00,0.00,VWS V14.01,2013-01-21 02:41:00,
2013-01-20 20:46:00,36.0,18.7,30.15,NNE,28,0.0,4.0,49,0.00,,CLR,0.00,0.00,VWS V14.01,2013-01-21 02:46:00,
2013-01-20 20:51:00,35.9,19.1,30.15,North,5,0.0,3.0,50,0.00,,CLR,0.00,0.00,VWS V14.01,2013-01-21 02:51:00,
2013-01-20 20:56:00,35.6,18.8,30.15,North,5,1.0,1.0,50,0.00,,CLR,0.00,0.00,VWS V14.01,2013-01-21 02:56:00,
2013-01-20 21:01:00,35.4,18.6,30.16,North,360,0.0,2.0,50,0.00,,CLR,0.00,0.00,VWS V14.01,2013-01-21 03:01:00,
2013-01-20 21:06:00,35.2,18.4,30.16,North,5,0.0,1.0,50,0.00,,CLR,0.00,0.00,VWS V14.01,2013-01-21 03:06:00,
2013-01-20 21:11:00,35.0,19.2,30.16,North,5,0.0,0.0,52,0.00,,CLR,0.00,0.00,VWS V14.01,2013-01-21 03:11:00,
2013-01-20 21:16:00,34.6,18.8,30.16,North,5,0.0,3.0,52,0.00,,CLR,0.00,0.00,VWS V14.01,2013-01-21 03:16:00,
2013-01-20 21:21:00,34.4,19.0,30.16,North,360,1.0,2.0,53,0.00,,CLR,0.00,0.00,VWS V14.01,2013-01-21 03:21:00,
2013-01-20 21:26:00,34.3,19.0,30.16,North,5,1.0,2.0,53,0.00,,CLR,0.00,0.00,VWS V14.01,2013-01-21 03:26:00,
2013-01-20 21:31:00,34.0,19.1,30.17,North,360,0.0,3.0,54,0.00,,CLR,0.00,0.00,VWS V14.01,2013-01-21 03:31:00,
2013-01-20 21:36:00,33.7,19.3,30.17,North,9,0.0,3.0,55,0.00,,CLR,0.00,0.00,VWS V14.01,2013-01-21 03:36:00,
2013-01-20 21:42:00,33.4,19.4,30.17,North,9,0.0,2.0,56,0.00,,CLR,0.00,0.00,VWS V14.01,2013-01-21 03:42:00,
2013-01-20 21:47:00,33.2,19.2,30.18,North,9,0.0,1.0,56,0.00,,CLR,0.00,0.00,VWS V14.01,2013-01-21 03:47:00,
2013-01-20 21:52:00,32.9,18.9,30.18,North,9,0.0,2.0,56,0.00,,CLR,0.00,0.00,VWS V14.01,2013-01-21 03:52:00,
2013-01-20 21:57:00,32.6,18.7,30.18,NE,46,0.0,3.0,56,0.00,,CLR,0.00,0.00,VWS V14.01,2013-01-21 03:57:00,
2013-01-20 22:02:00,32.4,18.5,30.19,NE,46,0.0,1.0,56,0.00,,CLR,0.00,0.00,VWS V14.01,2013-01-21 04:02:00,
2013-01-20 22:08:00,32.2,18.7,30.19,NE,45,0.0,2.0,57,0.00,,CLR,0.00,0.00,VWS V14.01,2013-01-21 04:08:00,
2013-01-20 22:13:00,31.9,17.6,30.19,NE,44,0.0,2.0,55,0.00,,CLR,0.00,0.00,VWS V14.01,2013-01-21 04:13:00,
2013-01-20 22:18:00,31.8,17.5,30.19,NNE,25,0.0,2.0,55,0.00,,CLR,0.00,0.00,VWS V14.01,2013-01-21 04:18:00,
2013-01-20 22:23:00,31.5,17.6,30.19,NE,38,2.0,3.0,56,0.00,,CLR,0.00,0.00,VWS V14.01,2013-01-21 04:23:00,
2013-01-20 22:28:00,31.3,18.6,30.19,North,11,0.0,5.0,59,0.00,,CLR,0.00,0.00,VWS V14.01,2013-01-21 04:28:00,
2013-01-20 22:33:00,31.0,18.8,30.20,NNW,337,0.0,3.0,60,0.00,,CLR,0.00,0.00,VWS V14.01,2013-01-21 04:33:00,
2013-01-20 22:38:00,30.8,19.0,30.20,North,5,0.0,3.0,61,0.00,,CLR,0.00,0.00,VWS V14.01,2013-01-21 04:38:00,
2013-01-20 22:44:00,30.5,18.7,30.20,NNE,14,0.0,2.0,61,0.00,,CLR,0.00,0.00,VWS V14.01,2013-01-21 04:44:00,
2013-01-20 22:49:00,30.2,18.0,30.21,NW,311,0.0,3.0,60,0.00,,CLR,0.00,0.00,VWS V14.01,2013-01-21 04:49:00,
2013-01-20 22:54:00,29.8,17.2,30.21,NNW,336,1.0,5.0,59,0.00,,CLR,0.00,0.00,VWS V14.01,2013-01-21 04:54:00,
2013-01-20 22:59:00,29.6,17.0,30.21,North,9,1.0,2.0,59,0.00,,CLR,0.00,0.00,VWS V14.01,2013-01-21 04:59:00,
2013-01-20 23:01:00,29.5,17.3,30.22,North,10,0.0,2.0,60,0.00,,CLR,0.00,0.00,VWS V14.01,2013-01-21 05:01:00,
2013-01-20 23:04:00,29.3,17.1,30.22,North,355,0.0,4.0,60,0.00,,CLR,0.00,0.00,VWS V14.01,2013-01-21 05:04:00,
2013-01-20 23:09:00,29.1,17.0,30.22,North,350,0.0,5.0,60,0.00,,CLR,0.00,0.00,VWS V14.01,2013-01-21 05:09:00,
2013-01-20 23:10:00,29.0,16.9,30.22,North,350,0.0,5.0,60,0.00,,CLR,0.00,0.00,VWS V14.01,2013-01-21 05:10:00,
2013-01-20 23:14:00,28.8,16.7,30.22,North,5,0.0,4.0,60,0.00,,CLR,0.00,0.00,VWS V14.01,2013-01-21 05:14:00,
2013-01-20 23:20:00,28.7,16.6,30.23,North,5,0.0,3.0,60,0.00,,CLR,0.00,0.00,VWS V14.01,2013-01-21 05:20:00,
2013-01-20 23:25:00,28.5,16.4,30.23,North,5,0.0,3.0,60,0.00,,CLR,0.00,0.00,VWS V14.01,2013-01-21 05:25:00,
2013-01-20 23:30:00,28.2,16.1,30.23,NW,326,0.0,6.0,60,0.00,,CLR,0.00,0.00,VWS V14.01,2013-01-21 05:30:00,
2013-01-20 23:35:00,28.0,15.9,30.23,NNW,342,0.0,2.0,60,0.00,,CLR,0.00,0.00,VWS V14.01,2013-01-21 05:35:00,
2013-01-20 23:41:00,27.9,15.8,30.23,NNW,342,0.0,1.0,60,0.00,,CLR,0.00,0.00,VWS V14.01,2013-01-21 05:41:00,
2013-01-20 23:46:00,27.8,16.1,30.23,NE,53,0.0,2.0,61,0.00,,CLR,0.00,0.00,VWS V14.01,2013-01-21 05:46:00,
2013-01-20 23:51:00,27.6,15.9,30.23,NE,54,0.0,1.0,61,0.00,,CLR,0.00,0.00,VWS V14.01,2013-01-21 05:51:00,
2013-01-20 23:57:00,27.4,16.1,30.23,NE,54,0.0,0.0,62,0.00,,CLR,0.00,0.00,VWS V14.01,2013-01-21 05:57:00,